Weather History for Pratt, KS

Change the Weather History Date:

Thursday, April 18, 2013

  Actual Average (KP28) Record (KP28)
Temperature  
Mean Temperature 34 °F 57 °F  
Max Temperature 37 °F 69 °F 91 °F (2002)
Min Temperature 30 °F 45 °F 30 °F (1998)
Degree Days  
Heating Degree Days 32 9  
Month to date heating degree days 206  
Since 1 July heating degree days 4303  
Cooling Degree Days 0 1  
Month to date cooling degree days 10  
Year to date cooling degree days 12  
Moisture  
Dew Point 29 °F    
Average Humidity 83    
Maximum Humidity 100    
Minimum Humidity 60    
Precipitation  
Precipitation 0.00 in 0.08 in 2.00 in (1970)
Month to date precipitation 1.29  
Year to date precipitation 5.30  
Snow  
Snow 0.00 in 0.00 in - ()
Month to date snowfall 0.0  
Since 1 July snowfall 8.5  
Snow Depth -    
Sea Level Pressure  
Sea Level Pressure 29.97 in    
Wind  
Wind Speed 25 mph (NNW)    
Max Wind Speed 33 mph    
Max Gust Speed 41 mph    
Visibility 8 miles    
Events Rain , Snow    
T = Trace of Precipitation, MM = Missing Value Source: NWS Daily Summary

Daily Weather History Graph

Daily Weather History Graph

Search for Another Location

Airport:

Trip Planner

Search our weather history database for the weather conditions in past years. The results will help you decide how hot, cold, wet, or windy it might be!

Date:

Astronomy

Apr. 18, 2013 Rise Set
Actual Time 6:55 AM CDT 8:13 PM CDT
Civil Twilight 6:28 AM CDT 8:40 PM CDT
Nautical Twilight 5:55 AM CDT 9:13 PM CDT
Astronomical Twilight 5:21 AM CDT 9:47 PM CDT
Moon 1:09 PM CDT (4/18) 2:27 AM CDT (4/18)
Length of Visible Light 14h 12m
Length of Day
13h 18m
First Quarter, 52% of the Moon is Illuminated
Apr 18
First Quarter
Apr 25
Full
May 2
Last Quarter
May 9
New
May 17
First Quarter

Hourly Weather History & Observations

Time (CDT) Temp. Windchill Dew Point Humidity Pressure Visibility Wind Dir Wind Speed Gust Speed Precip Events Conditions
12:15 AM 35.6 °F 23.4 °F 33.8 °F 93% 29.77 in 3.0 mi North 25.3 mph 36.8 mph N/A Rain Light Rain
12:35 AM 33.8 °F 20.8 °F 33.8 °F 100% 29.81 in 3.0 mi North 26.5 mph 35.7 mph N/A   Light Drizzle
12:55 AM 33.8 °F 20.8 °F 33.8 °F 100% 29.81 in 3.0 mi North 26.5 mph 34.5 mph N/A Snow Light Snow
1:15 AM 33.8 °F 20.8 °F 33.8 °F 100% 29.81 in 3.0 mi North 26.5 mph 34.5 mph N/A   Overcast
1:35 AM 33.8 °F 20.5 °F 33.8 °F 100% 29.82 in 3.0 mi North 27.6 mph 35.7 mph N/A   Overcast
1:55 AM 33.8 °F 20.8 °F 33.8 °F 100% 29.83 in 3.0 mi NNW 26.5 mph 33.4 mph N/A   Overcast
2:15 AM 32.0 °F 19.2 °F 32.0 °F 100% 29.84 in 5.0 mi NNW 23.0 mph 35.7 mph N/A   Overcast
2:35 AM 32.0 °F 18.6 °F 32.0 °F 100% 29.86 in 3.0 mi NNW 25.3 mph 33.4 mph N/A   Overcast
2:55 AM 32.0 °F 18.6 °F 32.0 °F 100% 29.87 in 3.0 mi NNW 25.3 mph 32.2 mph N/A   Overcast
3:15 AM 32.0 °F 18.1 °F 32.0 °F 100% 29.85 in 3.0 mi NNW 27.6 mph 33.4 mph N/A Snow Light Snow
3:35 AM 32.0 °F 18.1 °F 32.0 °F 100% 29.83 in 4.0 mi NNW 27.6 mph 40.3 mph N/A   Overcast
3:55 AM 32.0 °F 18.9 °F 32.0 °F 100% 29.82 in 5.0 mi NNW 24.2 mph 38.0 mph N/A   Overcast
4:35 AM 32.0 °F 18.1 °F 32.0 °F 100% 29.84 in 7.0 mi NNW 27.6 mph 35.7 mph N/A   Overcast
4:55 AM 32.0 °F 17.4 °F 32.0 °F 100% 29.84 in 5.0 mi NNW 31.1 mph 39.1 mph N/A   Overcast
5:15 AM 32.0 °F 17.0 °F 30.2 °F 93% 29.86 in 7.0 mi NNW 33.4 mph 41.4 mph N/A   Overcast
5:35 AM 32.0 °F 17.6 °F 30.2 °F 93% 29.87 in 10.0 mi NNW 29.9 mph 39.1 mph N/A   Overcast
5:55 AM 32.0 °F 17.4 °F 30.2 °F 93% 29.87 in 10.0 mi NNW 31.1 mph 39.1 mph N/A   Overcast
6:15 AM 32.0 °F 18.1 °F 30.2 °F 93% 29.87 in 5.0 mi NNW 27.6 mph 39.1 mph N/A   Overcast
6:35 AM 32.0 °F 19.2 °F 30.2 °F 93% 29.88 in 10.0 mi NNW 23.0 mph 34.5 mph N/A   Overcast
6:55 AM 32.0 °F 18.1 °F 30.2 °F 93% 29.89 in 10.0 mi NNW 27.6 mph 35.7 mph N/A   Overcast
7:15 AM 30.2 °F 16.2 °F 28.4 °F 93% 29.89 in 10.0 mi NNW 25.3 mph 38.0 mph N/A   Mostly Cloudy
7:35 AM 30.2 °F 15.2 °F 28.4 °F 93% 29.91 in 10.0 mi NNW 29.9 mph 35.7 mph N/A   Overcast
7:55 AM 32.0 °F 18.4 °F 28.4 °F 87% 29.93 in 10.0 mi NNW 26.5 mph 34.5 mph N/A   Overcast
8:15 AM 32.0 °F 17.9 °F 28.4 °F 87% 29.94 in 10.0 mi NNW 28.8 mph 40.3 mph N/A   Overcast
8:35 AM 32.0 °F 18.4 °F 28.4 °F 87% 29.95 in 10.0 mi NNW 26.5 mph 39.1 mph N/A   Overcast
8:55 AM 32.0 °F 18.6 °F 28.4 °F 87% 29.96 in 10.0 mi NNW 25.3 mph 35.7 mph N/A   Overcast
9:15 AM 32.0 °F 18.9 °F 28.4 °F 87% 29.97 in 10.0 mi NNW 24.2 mph 34.5 mph N/A   Overcast
9:35 AM 32.0 °F 17.6 °F 28.4 °F 87% 29.98 in 10.0 mi NNW 29.9 mph 35.7 mph N/A   Overcast
9:55 AM 32.0 °F 18.4 °F 28.4 °F 87% 29.97 in 10.0 mi NNW 26.5 mph 35.7 mph N/A   Overcast
10:35 AM 32.0 °F 17.2 °F 28.4 °F 87% 29.98 in 10.0 mi NNW 32.2 mph 40.3 mph N/A   Overcast
10:55 AM 33.8 °F 20.8 °F 28.4 °F 81% 29.99 in 10.0 mi North 26.5 mph 38.0 mph N/A   Overcast
11:15 AM 32.0 °F 18.4 °F 28.4 °F 87% 30.00 in 10.0 mi NNW 26.5 mph 34.5 mph N/A   Overcast
11:35 AM 33.8 °F 21.3 °F 28.4 °F 81% 30.00 in 10.0 mi NNW 24.2 mph 33.4 mph N/A   Overcast
11:55 AM 33.8 °F 21.0 °F 28.4 °F 81% 30.01 in 10.0 mi NNW 25.3 mph 32.2 mph N/A   Overcast
12:15 PM 33.8 °F 22.2 °F 28.4 °F 81% 30.00 in 10.0 mi NNW 20.7 mph 31.1 mph N/A   Overcast
12:35 PM 33.8 °F 21.0 °F 28.4 °F 81% 30.01 in 10.0 mi NNW 25.3 mph 32.2 mph N/A   Overcast
12:55 PM 33.8 °F 21.3 °F 28.4 °F 81% 30.00 in 10.0 mi NNW 24.2 mph 32.2 mph N/A   Overcast
1:15 PM 35.6 °F 23.2 °F 28.4 °F 75% 30.01 in 10.0 mi NNW 26.5 mph 34.5 mph N/A   Overcast
1:35 PM 35.6 °F 23.7 °F 28.4 °F 75% 30.01 in 10.0 mi NNW 24.2 mph 34.5 mph N/A   Overcast
1:55 PM 35.6 °F 23.0 °F 28.4 °F 75% 30.01 in 10.0 mi NNW 27.6 mph 35.7 mph N/A   Overcast
2:15 PM 35.6 °F 24.2 °F 26.6 °F 70% 30.02 in 10.0 mi NNW 21.9 mph 34.5 mph N/A   Overcast
2:35 PM 35.6 °F 23.7 °F 28.4 °F 75% 30.02 in 10.0 mi NNW 24.2 mph 31.1 mph N/A   Overcast
2:55 PM 35.6 °F 24.5 °F 26.6 °F 70% 30.03 in 10.0 mi NNW 20.7 mph 34.5 mph N/A   Overcast
3:15 PM 35.6 °F 23.4 °F 26.6 °F 70% 30.03 in 10.0 mi NNW 25.3 mph 33.4 mph N/A   Overcast
3:35 PM 35.6 °F 25.2 °F 28.4 °F 75% 30.03 in 10.0 mi NNW 18.4 mph 31.1 mph N/A   Overcast
3:55 PM 35.6 °F 24.5 °F 26.6 °F 70% 30.03 in 10.0 mi NNW 20.7 mph 31.1 mph N/A   Overcast
4:15 PM 35.6 °F 24.2 °F 28.4 °F 75% 30.03 in 10.0 mi NNW 21.9 mph 32.2 mph N/A   Overcast
4:35 PM 37.4 °F 27.5 °F 28.4 °F 70% 30.02 in 10.0 mi NNW 18.4 mph - N/A   Overcast
4:55 PM 37.4 °F 26.6 °F 26.6 °F 65% 30.02 in 10.0 mi NNW 21.9 mph 29.9 mph N/A   Overcast
5:15 PM 37.4 °F 26.1 °F 26.6 °F 65% 30.03 in 10.0 mi NNW 24.2 mph 31.1 mph N/A   Overcast
5:35 PM 37.4 °F 26.6 °F 26.6 °F 65% 30.03 in 10.0 mi NW 21.9 mph 33.4 mph N/A   Overcast
5:55 PM 37.4 °F 26.1 °F 26.6 °F 65% 30.04 in 10.0 mi NNW 24.2 mph 28.8 mph N/A   Overcast
6:15 PM 37.4 °F 26.9 °F 24.8 °F 60% 30.04 in 10.0 mi NNW 20.7 mph 29.9 mph N/A   Overcast
6:35 PM 35.6 °F 23.7 °F 24.8 °F 65% 30.05 in 10.0 mi NNW 24.2 mph 32.2 mph N/A   Overcast
6:55 PM 35.6 °F 24.2 °F 24.8 °F 65% 30.06 in 10.0 mi NNW 21.9 mph 28.8 mph N/A   Overcast
7:15 PM 35.6 °F 25.2 °F 23.0 °F 60% 30.07 in 10.0 mi NNW 18.4 mph 27.6 mph N/A   Overcast
7:35 PM 35.6 °F 24.8 °F 24.8 °F 65% 30.07 in 10.0 mi NNW 19.6 mph 26.5 mph N/A   Overcast
7:55 PM 35.6 °F 24.8 °F 24.8 °F 65% 30.08 in 10.0 mi NNW 19.6 mph 25.3 mph N/A   Overcast
8:15 PM 33.8 °F 23.2 °F 24.8 °F 70% 30.08 in 10.0 mi NNW 17.3 mph 25.3 mph N/A   Overcast
8:35 PM 33.8 °F 23.5 °F 26.6 °F 75% 30.09 in 10.0 mi NW 16.1 mph 20.7 mph N/A   Overcast
10:35 PM 32.0 °F 23.6 °F 26.6 °F 80% 30.11 in 10.0 mi NW 10.4 mph - N/A   Overcast
10:55 PM 33.8 °F 25.8 °F 26.6 °F 75% 30.11 in 10.0 mi NW 10.4 mph - N/A   Overcast
11:15 PM 32.0 °F 22.5 °F 26.6 °F 80% 30.11 in 10.0 mi NW 12.7 mph - N/A   Overcast
11:35 PM 33.8 °F 24.8 °F 26.6 °F 75% 30.10 in 10.0 mi NW 12.7 mph - N/A   Overcast
11:55 PM 32.0 °F 23.0 °F 26.6 °F 80% 30.11 in 10.0 mi NW 11.5 mph - N/A   Scattered Clouds